Hourly Data Report for October 15, 2014

All times are specified in Local Standard Time (LST). Add 1 hour to adjust for Daylight Saving Time where and when it is observed.

PENTICTON A
BRITISH COLUMBIA

49°27'45.000" N
119°36'08.000" W
344.40 m
1126146
71889
YYF

Download Data

Hourly Data (October 2014)
Hourly Data Report for October 15, 2014
Temp Definition
°C
Dew Point Temp Definition
°C
Rel Hum Definition
%
Wind Dir Definition
10's deg

Wind Spd Definition
km/h
Visibility Definition
km
Stn Press Definition
kPa
Hmdx Definition


Wind Chill Definition


Weather Definition


TIME
00:00 Legend Double Dagger 11.1 5.9 70 11 4 24.1 96.18     LegendNANA
01:00 Legend Double Dagger 10.8 7.5 80 36 2 24.1 96.17     Rain Showers
02:00 Legend Double Dagger 10.8 7.2 78 35 7 24.1 96.15     LegendNANA
03:00 Legend Double Dagger 10.8 8.1 83 28 4 24.1 96.09     LegendNANA
04:00 Legend Double Dagger 12.1 8.6 79 18 10 24.1 96.06     Rain Showers
05:00 Legend Double Dagger 11.8 8.5 80 13 4 16.1 96.07     Rain Showers
06:00 Legend Double Dagger 11.5 9.1 85 14 5 24.1 96.05     LegendNANA
07:00 Legend Double Dagger 10.5 9.1 91 34 5 24.1 96.10     Rain Showers
08:00 Legend Double Dagger 11.0 9.6 91 13 3 24.1 96.12     LegendNANA
09:00 Legend Double Dagger 12.4 9.4 82 16 9 24.1 96.12     LegendNANA
10:00 Legend Double Dagger 12.8 9.5 80 13 10 24.1 96.13     Cloudy
11:00 Legend Double Dagger 13.1 9.9 81 15 10 24.1 96.17     LegendNANA
12:00 Legend Double Dagger 13.5 9.0 74 17 14 24.1 96.22     LegendNANA
13:00 Legend Double Dagger 13.1 9.6 79 17 18 24.1 96.27     Cloudy
14:00 Legend Double Dagger 12.1 10.0 87 17 16 16.1 96.37     Rain
15:00 Legend Double Dagger 11.4 9.3 87 16 7 16.1 96.48     Rain
16:00 Legend Double Dagger 11.1 8.9 86 14 15 24.1 96.58     Rain
17:00 Legend Double Dagger 11.2 8.3 82 18 20 24.1 96.68     LegendNANA
18:00 Legend Double Dagger 11.2 8.4 83 12 12 24.1 96.79     LegendNANA
19:00 Legend Double Dagger 10.9 8.0 82 14 5 24.1 96.90     Mostly Cloudy
20:00 Legend Double Dagger 10.9 7.8 81 15 7 24.1 96.99     LegendNANA
21:00 Legend Double Dagger 10.8 7.5 80 16 6 24.1 97.10     LegendNANA
22:00 Legend Double Dagger 8.4 6.9 90 1 3 24.1 97.16     Mostly Cloudy
23:00 Legend Double Dagger 8.9 6.2 83 6 5 24.1 97.23     LegendNANA

Notes on Data Quality.

Legend

  • E = Estimated
  • M = Missing
  • NA = Not Available
  • ‡ = Partner data that is not subject to review by the National Climate Archives
Date modified: